Find UOSAT-OSCAR-36

NORAD ID: 25693 Int'l Des: 1999-021 Owner: SSTL Country: UK operational
LEOCIRCULAR

实时位置

正在加载3D地球...

关于 UOSAT-OSCAR-36

正在加载描述...

即将过境

Passes for default location (London). Set your location on the main map for personalized predictions.

高度历史

Loading altitude history...

两行轨道根数

1 25693U 99021A 26106.78932422 .00000254 00000-0 47936-4 0 9992
2 25693 64.5539 250.6143 0032728 229.8453 129.9787 14.84202935457732
Epoch: Apr 16, 2026 • Age: 13 hours

当前状态

高度 634.9 km
速度 7.53 km/s
星下点 8.64°N, 71.26°W
发射日期 Apr 21, 1999
运行时间 26.9 years
类型 other

技术详情

分类 Payload
质量 325.00 kg
干质量 325.00 kg
总质量 325.00 kg
长度 1.00 m
直径 0.60 m
跨度 6.00 m
形状 Nonag Box + Ant
制造商 SSTL
平台类型 Minisat-400
阶段状态 In Orbit
所有者/国家 SSTL/UK

Most Searched